TimeCST,TemperatureF,Dew PointF,Humidity,Sea Level PressureIn,VisibilityMPH,Wind Direction,Wind SpeedMPH,Gust SpeedMPH,PrecipitationIn,Events,Conditions,WindDirDegrees,DateUTC
12:15 AM,30.2,26.6,86,29.76,4.0,ESE,5.8,-,N/A,,Overcast,120,2013-01-11 06:15:00
12:36 AM,30.2,26.6,86,29.74,4.0,ESE,6.9,-,N/A,,Overcast,120,2013-01-11 06:36:00
12:57 AM,30.2,26.6,86,29.72,3.0,ESE,6.9,-,N/A,,Overcast,120,2013-01-11 06:57:00
1:18 AM,30.2,26.6,86,29.71,7.0,East,8.1,-,N/A,,Overcast,100,2013-01-11 07:18:00
1:36 AM,30.2,26.6,86,29.71,4.0,ESE,9.2,-,N/A,,Overcast,120,2013-01-11 07:36:00
1:57 AM,30.2,26.6,86,29.71,2.5,SE,8.1,-,N/A,,Overcast,130,2013-01-11 07:57:00
2:18 AM,30.2,26.6,86,29.69,4.0,ESE,5.8,-,N/A,,Overcast,110,2013-01-11 08:18:00
2:36 AM,30.2,26.6,86,29.68,2.0,ESE,6.9,-,N/A,,Overcast,120,2013-01-11 08:36:00
2:57 AM,30.2,26.6,86,29.66,0.5,ESE,5.8,-,N/A,,Overcast,120,2013-01-11 08:57:00
3:17 AM,30.2,28.4,93,29.64,0.2,SE,4.6,-,N/A,,Overcast,130,2013-01-11 09:17:00
3:55 AM,30.2,28.4,93,29.62,0.2,SE,3.5,-,N/A,,Overcast,130,2013-01-11 09:55:00
4:17 AM,30.2,28.4,93,29.61,0.2,SSE,3.5,-,N/A,,Overcast,150,2013-01-11 10:17:00
4:57 AM,30.2,28.4,93,29.60,0.2,SSE,5.8,-,N/A,,Overcast,150,2013-01-11 10:57:00
5:17 AM,30.2,28.4,93,29.59,0.2,SSE,4.6,-,N/A,,Overcast,160,2013-01-11 11:17:00
5:35 AM,30.2,28.4,93,29.58,0.2,SSE,4.6,-,N/A,,Overcast,150,2013-01-11 11:35:00
5:41 AM,30.2,28.4,93,29.58,0.2,SSE,5.8,-,N/A,,Overcast,150,2013-01-11 11:41:00
6:01 AM,30.2,28.4,93,29.58,0.2,South,4.6,-,N/A,,Overcast,170,2013-01-11 12:01:00
6:35 AM,32.0,28.4,87,29.57,0.2,South,4.6,-,N/A,,Overcast,170,2013-01-11 12:35:00
6:55 AM,32.0,28.4,87,29.57,0.2,South,3.5,-,N/A,,Overcast,170,2013-01-11 12:55:00
7:15 AM,32.0,28.4,87,29.57,0.2,South,3.5,-,N/A,,Overcast,180,2013-01-11 13:15:00
7:21 AM,32.0,28.4,87,29.57,0.2,South,3.5,-,N/A,,Overcast,180,2013-01-11 13:21:00
8:01 AM,32.0,28.4,87,29.55,0.2,South,3.5,-,N/A,,Overcast,170,2013-01-11 14:01:00
8:30 AM,32.0,28.4,87,29.55,0.2,South,3.5,-,N/A,,Overcast,170,2013-01-11 14:30:00
9:21 AM,32.0,28.4,87,29.55,0.2,South,3.5,-,N/A,,Overcast,170,2013-01-11 15:21:00
9:41 AM,32.0,28.4,87,29.55,0.2,South,3.5,-,N/A,,Overcast,190,2013-01-11 15:41:00
10:01 AM,32.0,28.4,87,29.54,0.5,South,2.3,-,N/A,,Overcast,170,2013-01-11 16:01:00
10:21 AM,32.0,28.4,87,29.54,0.5,South,3.5,-,N/A,,Overcast,180,2013-01-11 16:21:00
10:41 AM,32.0,28.4,87,29.53,1.5,South,3.5,-,N/A,,Overcast,180,2013-01-11 16:41:00
11:01 AM,33.8,30.2,87,29.53,1.5,South,4.6,-,N/A,,Overcast,180,2013-01-11 17:01:00
11:21 AM,33.8,30.2,87,29.53,3.0,SSW,1.2,-,N/A,,Overcast,200,2013-01-11 17:21:00
11:41 AM,33.8,30.2,87,29.53,1.0,South,5.8,-,N/A,,Overcast,180,2013-01-11 17:41:00
12:01 PM,33.8,30.2,87,29.51,0.2,South,1.2,-,N/A,,Overcast,170,2013-01-11 18:01:00
12:21 PM,33.8,30.2,87,29.51,0.2,South,2.3,-,N/A,,Overcast,170,2013-01-11 18:21:00
12:41 PM,33.8,30.2,87,29.51,0.2,South,3.5,-,N/A,,Overcast,190,2013-01-11 18:41:00
1:01 PM,33.8,30.2,87,29.50,0.2,SSE,2.3,-,N/A,,Overcast,160,2013-01-11 19:01:00
1:21 PM,33.8,30.2,87,29.49,0.2,SSE,1.2,-,N/A,,Overcast,160,2013-01-11 19:21:00
1:41 PM,33.8,30.2,87,29.49,0.5,SE,1.2,-,N/A,,Overcast,130,2013-01-11 19:41:00
2:01 PM,33.8,30.2,87,29.49,0.2,SSE,3.5,-,N/A,,Overcast,160,2013-01-11 20:01:00
2:21 PM,33.8,30.2,87,29.49,0.2,SSE,3.5,-,N/A,,Overcast,160,2013-01-11 20:21:00
2:41 PM,33.8,30.2,87,29.50,0.2,SSE,4.6,-,N/A,,Overcast,150,2013-01-11 20:41:00
3:01 PM,33.8,30.2,87,29.50,0.2,SSE,4.6,-,N/A,,Overcast,150,2013-01-11 21:01:00
3:21 PM,32.0,30.2,93,29.50,0.2,SE,2.3,-,N/A,,Overcast,130,2013-01-11 21:21:00
3:41 PM,32.0,30.2,93,29.50,0.2,SSE,2.3,-,N/A,,Overcast,150,2013-01-11 21:41:00
4:01 PM,32.0,28.4,87,29.49,0.2,SE,1.2,-,N/A,,Overcast,140,2013-01-11 22:01:00
4:21 PM,32.0,28.4,87,29.50,0.2,SSE,2.3,-,N/A,,Overcast,150,2013-01-11 22:21:00
4:41 PM,32.0,28.4,87,29.51,0.2,SSE,3.5,-,N/A,,Overcast,160,2013-01-11 22:41:00
5:01 PM,32.0,28.4,87,29.49,0.2,SE,3.5,-,N/A,,Overcast,140,2013-01-11 23:01:00
5:21 PM,32.0,28.4,87,29.48,0.2,ESE,3.5,-,N/A,,Overcast,120,2013-01-11 23:21:00
5:41 PM,32.0,28.4,87,29.47,0.2,ESE,4.6,-,N/A,,Overcast,110,2013-01-11 23:41:00
6:01 PM,33.8,30.2,87,29.48,0.2,SE,3.5,-,N/A,,Overcast,130,2013-01-12 00:01:00
6:21 PM,33.8,30.2,87,29.47,0.2,SE,3.5,-,N/A,,Overcast,130,2013-01-12 00:21:00
6:41 PM,33.8,30.2,87,29.46,0.2,East,5.8,-,N/A,,Overcast,80,2013-01-12 00:41:00
7:01 PM,33.8,30.2,87,29.46,0.2,ENE,3.5,-,N/A,,Overcast,60,2013-01-12 01:01:00
7:21 PM,33.8,30.2,87,29.45,0.2,ENE,4.6,-,N/A,,Overcast,70,2013-01-12 01:21:00
7:41 PM,33.8,30.2,87,29.45,0.2,East,3.5,-,N/A,,Overcast,100,2013-01-12 01:41:00
8:01 PM,33.8,30.2,87,29.43,0.2,East,6.9,-,N/A,,Overcast,90,2013-01-12 02:01:00
8:21 PM,33.8,30.2,87,29.42,0.5,East,8.1,-,N/A,,Overcast,90,2013-01-12 02:21:00
8:41 PM,33.8,30.2,87,29.42,0.8,East,8.1,-,N/A,,Overcast,90,2013-01-12 02:41:00
9:01 PM,33.8,30.2,87,29.42,0.8,East,6.9,-,N/A,,Overcast,100,2013-01-12 03:01:00
9:21 PM,33.8,30.2,87,29.40,1.0,East,8.1,-,N/A,,Overcast,100,2013-01-12 03:21:00
9:41 PM,33.8,30.2,87,29.40,0.5,ESE,6.9,-,N/A,,Overcast,120,2013-01-12 03:41:00
10:01 PM,33.8,30.2,87,29.39,0.5,East,8.1,-,N/A,,Overcast,90,2013-01-12 04:01:00
10:21 PM,33.8,30.2,87,29.38,0.5,ESE,5.8,-,N/A,,Overcast,110,2013-01-12 04:21:00
10:41 PM,33.8,30.2,87,29.37,0.8,SE,3.5,-,N/A,,Overcast,130,2013-01-12 04:41:00
11:01 PM,33.8,32.0,93,29.37,0.5,SE,4.6,-,N/A,,Overcast,130,2013-01-12 05:01:00
11:21 PM,33.8,32.0,93,29.37,0.5,SE,3.5,-,N/A,,Overcast,140,2013-01-12 05:21:00
11:41 PM,33.8,32.0,93,29.36,0.5,SE,3.5,-,N/A,,Overcast,130,2013-01-12 05:41:00